Temperature
5 5 5 5 5 5 5 5 5 4 4 4 5 5 5 5 5 5 5 5 5 4 4 4 4 4 4 4 4 4 4 4 4 4 4 3 3 3
5 5 5 5 5 5 5 5 4 4 4 4 4 4 4 4 4 4 4 4 4 4 4 4 4 4 4 4 3 3 3 3 3 3 3 3 3 3
5 4 5 4 5 4 4 4 4 4 4 4 3 3 3 3 3 3 3 3 3 3 3 3 3 3 3 3 3 3 3 3 3 3 3 2 2 2
4 4 4 4 4 4 4 4 4 3 3 3 3 3 3 3 3 3 3 3 3 3 3 3 2 2 2 2 2 2 2 2 2 2 2 2 2 2
3 4 4 4 3 3 3 3 3 3 3 3 2 2 2 2 2 2 2 2 2 2 2 2 2 2 2 2 2 2 2 2 2 2 1 1 1 1
3 3 3 3 3 3 3 3 3 2 2 2 2 2 2 2 2 1 1 2 1 1 1 1 1 1 1 1 1 1 1 1 1 1 1 1 0 0
2 2 2 2 2 2 2 2 2 2 2 1 1 1 1 1 1 1 1 1 1 1 1 1 1 1 1 0 0 0 0 0 -0 -0 -0 -0 -0 -0
2 2 2 2 2 2 1 1 1 1 1 1 1 1 0 0 0 0 -0 -0 -0 -0 -0 -0 -0 -0 -0 -0 -0 -1 -1 -1 -1 -1 -1 -1 -1 -1
2 1 1 1 1 1 1 1 1 0 0 0 0 0 -0 -0 -0 -0 -1 -1 -1 -1 -1 -1 -1 -1 -1 -1 -1 -1 -1 -1 -1 -1 -1 -1 -1 -1
1 1 1 0 0 0 0 0 0 -0 -0 -0 -0 -1 -1 -1 -1 -1 -1 -1 -1 -1 -2 -2 -1 -1 -1 -2 -2 -2 -2 -2 -2 -2 -2 -2 -2 -2
0 0 -0 -0 -0 -0 -0 -0 -1 -1 -1 -1 -1 -1 -1 -2 -2 -2 -2 -2 -2 -2 -2 -2 -2 -2 -2 -2 -2 -2 -3 -3 -2 -2 -3 -3 -3 -3
-1 -1 -1 -1 -1 -1 -1 -1 -1 -1 -1 -2 -2 -2 -2 -2 -2 -2 -2 -2 -3 -3 -3 -3 -3 -4 -4 -3 -3 -3 -3 -3 -3 -3 -3 -3 -3 -3
-1 -1 -1 -2 -2 -2 -2 -2 -2 -2 -2 -2 -2 -3 -3 -3 -3 -3 -3 -3 -3 -3 -3 -4 -4 -4 -5 -5 -4 -4 -4 -4 -4 -4 -4 -4 -4 -4
-2 -2 -2 -2 -2 -2 -2 -2 -2 -3 -3 -3 -3 -3 -3 -3 -3 -4 -4 -4 -4 -4 -4 -4 -5 -5 -5 -5 -5 -5 -4 -4 -4 -4 -4 -4 -4 -4
-2 -3 -3 -3 -3 -3 -3 -3 -3 -3 -3 -3 -4 -4 -4 -4 -4 -4 -4 -4 -4 -4 -5 -5 -5 -5 -6 -6 -6 -5 -5 -5 -5 -5 -5 -5 -5 -5
-3 -3 -3 -3 -3 -3 -3 -3 -3 -4 -4 -4 -4 -4 -4 -4 -4 -5 -5 -5 -5 -5 -5 -5 -6 -6 -6 -6 -6 -6 -6 -6 -6 -5 -6 -5 -5 -5
-3 -4 -4 -4 -4 -4 -4 -4 -4 -4 -4 -4 -4 -5 -5 -5 -5 -5 -5 -5 -5 -5 -5 -6 -6 -6 -6 -6 -6 -6 -6 -6 -6 -6 -6 -6 -5 -5
-4 -4 -4 -4 -4 -4 -4 -4 -4 -4 -5 -5 -5 -5 -5 -5 -5 -5 -5 -6 -6 -6 -6 -6 -6 -6 -6 -6 -6 -6 -6 -6 -6 -6 -6 -6 -6 -5
-4 -4 -4 -4 -4 -4 -5 -5 -5 -5 -5 -5 -5 -5 -6 -6 -6 -6 -6 -6 -6 -6 -6 -7 -7 -7 -7 -7 -7 -7 -7 -7 -7 -6 -6 -7 -6 -6
-4 -4 -5 -5 -5 -5 -5 -5 -5 -5 -5 -5 -6 -6 -6 -6 -6 -6 -6 -7 -7 -7 -7 -7 -7 -7 -8 -8 -7 -7 -7 -7 -7 -7 -7 -7 -7 -6
-5 -5 -5 -5 -5 -5 -5 -5 -5 -6 -6 -6 -6 -6 -6 -7 -7 -7 -7 -7 -7 -7 -7 -7 -7 -8 -8 -8 -8 -7 -7 -7 -7 -7 -7 -7 -7 -7
-5 -5 -5 -6 -6 -5 -6 -6 -6 -6 -6 -6 -6 -6 -7 -7 -7 -7 -7 -7 -8 -8 -8 -8 -8 -8 -8 -8 -8 -8 -7 -7 -7 -7 -8 -8 -8 -8
-5 -5 -6 -6 -6 -6 -6 -6 -6 -6 -6 -6 -7 -7 -7 -7 -7 -7 -8 -8 -8 -8 -8 -8 -8 -8 -8 -8 -8 -8 -8 -8 -8 -8 -7 -8 -8 -8
Wind_Speed
2 2 2 2 2 2 1 2 3 3 3 2 1 0 1 2 2 2 2 4 4 4 4 4 5 6 6 6 6 6 6 6 6 6 7 8 9 10
2 2 2 2 1 1 2 2 2 2 3 2 1 1 1 2 3 3 3 4 5 4 4 4 5 5 5 5 5 6 6 6 6 7 8 9 10 10
2 2 3 2 2 2 2 2 2 1 3 2 1 1 1 1 2 3 4 4 4 5 5 5 5 5 5 4 4 5 5 6 7 7 8 9 9 10
3 3 3 2 3 2 2 3 2 2 2 3 2 1 2 2 2 2 2 3 3 5 5 5 5 5 5 4 4 4 5 6 7 7 8 9 9 10
3 3 3 2 3 2 3 3 2 2 2 2 2 1 1 1 1 2 2 2 3 4 4 4 4 4 4 4 4 4 5 6 7 8 8 9 9 10
3 3 3 3 3 3 3 3 2 2 2 2 2 2 2 1 1 1 2 1 2 2 3 3 3 3 4 4 5 5 6 7 7 8 9 9 9 10
3 3 3 4 4 4 3 3 2 2 2 3 3 2 2 1 2 2 2 2 2 1 1 2 2 2 2 4 5 6 6 7 8 8 9 9 9 10
3 3 3 3 4 4 4 5 4 4 4 4 3 4 3 3 2 2 1 2 2 1 1 3 2 2 3 3 5 6 6 7 8 8 8 9 9 9
3 3 2 3 3 2 3 4 4 6 6 4 4 5 4 3 3 3 2 3 3 2 2 3 2 3 3 4 6 6 6 7 8 8 8 9 9 9
2 3 3 3 3 3 2 1 2 3 4 3 3 3 3 2 2 3 3 2 2 2 1 2 2 3 4 4 6 6 6 6 7 7 8 8 9 10
2 2 2 3 4 4 2 1 1 2 3 4 3 3 3 3 2 1 1 2 2 2 1 1 1 2 3 3 4 5 5 6 7 8 9 9 10 10
1 2 3 3 4 3 2 2 2 2 1 1 2 2 2 3 3 2 3 3 2 2 1 0 1 1 2 2 2 4 5 7 8 9 9 9 9 7
2 1 2 3 4 4 3 2 3 2 1 1 1 2 1 1 1 1 2 3 3 3 2 0 1 1 2 2 2 3 3 4 6 7 8 9 10 8
2 2 2 3 3 3 3 3 3 2 1 1 1 2 2 2 2 1 1 2 2 4 4 3 2 2 2 3 3 3 3 5 4 4 5 8 9 10
2 2 2 2 2 2 3 3 2 1 1 1 2 2 2 2 1 1 1 1 2 3 4 4 3 3 3 4 4 3 4 4 4 4 4 5 5 6
1 1 2 2 1 2 2 1 1 1 2 2 2 2 1 1 2 2 2 1 1 2 3 4 4 4 4 4 5 5 4 4 3 4 5 5 6 6
1 1 1 0 1 1 1 1 1 1 2 1 1 1 2 2 2 2 2 2 2 3 2 2 2 3 4 4 5 6 5 5 4 4 4 6 5 6
2 2 2 2 2 2 2 1 1 2 2 2 2 2 2 2 2 2 2 2 3 3 3 2 1 2 2 3 6 5 4 4 4 4 4 5 6 5
2 2 2 2 2 2 2 2 2 2 1 1 2 2 2 2 2 2 2 2 3 3 3 2 2 2 3 4 4 4 4 3 3 4 4 5 6 6
2 2 2 2 2 2 2 2 2 2 2 2 2 2 2 2 2 3 3 3 3 3 3 3 3 3 4 4 4 4 6 4 4 5 5 5 5 8
2 2 2 2 2 2 2 2 2 2 3 2 3 3 2 2 3 3 3 5 4 3 4 4 4 5 3 2 3 4 4 6 6 5 5 5 5 5
2 2 2 2 2 2 2 2 3 3 3 3 3 3 3 3 3 4 4 4 4 4 4 3 3 3 2 4 5 5 5 5 6 8 8 8 5 4
2 2 2 2 2 2 2 3 3 3 3 3 3 3 3 3 3 3 4 4 3 3 3 3 3 3 3 4 4 5 5 5 4 5 6 9 11 12
Wind_Direction
221 226 229 231 236 237 224 202 196 233 251 237 234 279 285 273 269 262 270 276 280 280 278 279 282 286 292 291 287 287 287 289 291 296 300 299 301 303
218 219 233 237 238 242 231 239 219 214 240 230 233 266 284 290 278 269 269 269 270 273 277 277 279 278 286 285 282 280 280 286 291 293 296 296 299 300
226 216 227 227 234 245 244 243 245 221 243 274 276 283 278 287 294 275 263 257 258 266 268 270 275 277 283 286 288 284 284 288 291 292 293 293 296 298
221 213 223 226 228 232 238 242 244 237 226 252 280 295 271 264 285 285 286 278 271 268 266 268 271 281 284 280 286 295 298 296 295 297 299 299 297 298
222 217 222 211 228 236 231 239 241 246 223 227 260 283 284 276 292 314 310 304 292 271 273 280 284 288 295 293 296 299 299 299 298 299 300 297 298 300
222 217 220 220 224 224 227 229 233 233 222 221 245 264 272 263 192 281 298 301 304 298 299 301 297 293 298 297 295 295 299 300 302 301 298 296 295 296
221 216 221 225 230 230 233 222 217 227 226 229 243 260 261 240 231 238 265 288 296 274 303 302 305 290 291 289 286 288 294 299 301 301 301 298 293 293
219 225 230 222 234 246 256 247 233 230 231 231 245 242 249 241 233 220 232 284 281 276 305 293 290 272 283 279 282 288 295 300 300 300 300 299 298 297
212 214 236 233 232 234 255 262 252 252 248 239 232 234 233 231 215 218 229 248 262 258 281 278 276 273 286 282 287 295 303 305 305 305 303 303 303 302
217 211 211 216 227 227 224 248 251 256 257 254 229 232 232 222 208 218 220 264 288 276 254 263 275 285 294 286 279 289 299 301 303 307 310 309 307 305
226 210 206 209 232 236 213 209 247 289 286 265 268 273 271 267 252 183 206 230 276 270 233 232 274 305 291 274 279 288 297 301 305 308 311 311 311 309
223 222 227 230 243 235 202 196 219 253 269 287 274 278 271 263 259 226 212 224 252 262 225 186 267 340 313 293 293 299 300 300 304 306 308 310 314 319
212 225 233 242 245 250 247 227 236 251 219 220 244 248 251 241 244 246 234 217 229 253 229 167 237 254 252 287 295 289 294 305 307 305 307 309 312 315
210 214 226 244 256 269 258 240 248 261 206 217 251 246 238 234 225 228 243 255 250 251 242 231 227 236 263 280 281 290 302 301 298 296 298 307 310 309
215 218 240 260 279 288 265 255 263 235 200 237 259 246 229 219 201 222 266 278 285 273 261 252 231 235 246 263 271 280 297 294 289 289 296 299 298 307
259 240 244 272 308 296 288 291 281 244 233 235 250 234 219 216 220 217 225 217 268 281 275 264 241 230 252 256 262 271 272 268 285 294 293 290 291 289
194 172 177 197 257 277 288 285 273 264 263 242 239 239 237 237 236 220 217 230 255 260 267 268 270 263 247 248 257 257 262 268 269 282 290 292 287 283
189 186 209 217 230 236 240 262 268 260 253 247 244 248 248 247 246 236 229 236 249 255 257 252 264 307 311 279 240 245 255 266 274 279 278 285 289 292
192 205 223 230 233 237 245 251 260 264 269 261 258 252 250 250 246 243 241 242 249 254 257 252 238 247 273 285 279 240 243 265 281 285 279 277 282 291
201 213 226 232 235 239 245 252 258 259 255 257 255 249 242 242 248 249 243 243 249 260 263 251 239 238 245 260 274 281 270 257 268 279 289 290 284 289
218 224 225 227 234 239 243 245 245 248 251 249 255 247 236 237 247 246 242 250 253 251 253 256 258 276 267 263 275 279 279 277 274 274 283 291 296 295
225 228 233 230 232 234 241 246 252 252 249 247 252 251 243 239 244 243 236 236 241 248 259 265 260 269 256 257 264 277 290 298 299 290 279 272 272 274
236 235 239 238 236 235 239 244 249 253 252 250 247 244 241 242 241 243 236 235 238 244 254 264 271 269 267 257 264 275 283 292 299 302 295 291 282 281
Height
1491 1492 1493 1494 1495 1496 1497 1498 1499 1497 1497 1498 1499 1499 1500 1499 1499 1499 1499 1499 1499 1499 1499 1499 1498 1498 1498 1498 1498 1498 1498 1497 1497 1496 1496 1496 1495 1495
1487 1488 1489 1490 1491 1492 1493 1494 1494 1494 1493 1493 1494 1495 1495 1495 1495 1495 1495 1495 1495 1495 1494 1494 1494 1494 1494 1493 1493 1493 1493 1493 1492 1492 1491 1491 1491 1490
1483 1484 1485 1486 1487 1488 1488 1489 1490 1490 1490 1489 1491 1491 1491 1491 1491 1491 1491 1490 1490 1490 1490 1490 1490 1489 1489 1488 1488 1488 1488 1488 1488 1487 1487 1486 1486 1485
1479 1480 1480 1481 1482 1483 1484 1484 1485 1486 1486 1485 1485 1486 1487 1487 1486 1486 1486 1486 1486 1486 1485 1485 1485 1485 1484 1484 1483 1483 1483 1483 1483 1482 1482 1481 1481 1480
1475 1476 1476 1477 1478 1478 1479 1480 1480 1481 1481 1481 1481 1482 1482 1482 1482 1482 1482 1481 1481 1481 1481 1481 1480 1480 1480 1479 1479 1479 1478 1478 1478 1477 1477 1476 1475 1475
1471 1472 1472 1473 1473 1474 1475 1475 1476 1476 1477 1477 1477 1477 1477 1477 1477 1477 1477 1476 1476 1477 1476 1476 1476 1475 1475 1475 1474 1474 1474 1473 1473 1472 1471 1471 1470 1470
1467 1467 1468 1469 1469 1470 1471 1471 1471 1472 1472 1472 1472 1472 1472 1473 1473 1472 1472 1472 1472 1472 1472 1472 1472 1471 1471 1470 1470 1469 1469 1469 1468 1467 1466 1466 1465 1464
1462 1463 1464 1464 1465 1466 1466 1466 1467 1467 1467 1468 1467 1468 1468 1468 1468 1468 1468 1468 1467 1468 1467 1467 1467 1467 1466 1466 1465 1465 1464 1464 1463 1462 1462 1461 1460 1459
1458 1458 1459 1459 1460 1461 1461 1462 1462 1463 1464 1464 1463 1463 1464 1464 1464 1464 1464 1464 1463 1464 1464 1462 1463 1462 1462 1461 1461 1461 1460 1459 1459 1458 1457 1456 1455 1454
1454 1454 1455 1455 1456 1457 1457 1457 1457 1458 1459 1459 1459 1459 1460 1460 1460 1460 1459 1460 1460 1460 1460 1458 1458 1457 1457 1457 1457 1456 1456 1455 1455 1454 1453 1452 1451 1449
1450 1450 1451 1451 1452 1452 1453 1453 1453 1453 1454 1454 1455 1455 1455 1456 1455 1455 1455 1455 1455 1455 1455 1454 1453 1453 1452 1452 1452 1452 1452 1451 1450 1449 1448 1447 1446 1445
1446 1447 1447 1448 1448 1449 1449 1449 1448 1449 1449 1450 1450 1450 1451 1451 1451 1452 1451 1452 1451 1451 1450 1451 1450 1449 1448 1448 1448 1448 1447 1447 1446 1445 1444 1443 1442 1440
1442 1443 1444 1444 1445 1445 1445 1445 1445 1446 1446 1446 1445 1446 1446 1446 1446 1447 1448 1448 1447 1447 1447 1447 1446 1446 1446 1444 1443 1444 1443 1443 1442 1441 1440 1439 1438 1437
1439 1440 1440 1441 1441 1441 1442 1442 1442 1442 1442 1441 1441 1441 1441 1441 1442 1443 1443 1443 1443 1443 1443 1443 1442 1442 1441 1440 1439 1439 1439 1438 1438 1436 1435 1435 1434 1433
1436 1437 1437 1438 1438 1438 1439 1439 1438 1438 1438 1438 1437 1437 1437 1438 1438 1439 1439 1439 1439 1439 1439 1438 1438 1438 1438 1437 1435 1435 1434 1434 1433 1432 1431 1430 1429 1428
1434 1434 1434 1435 1435 1435 1435 1435 1435 1435 1435 1434 1434 1434 1434 1434 1434 1435 1435 1434 1434 1434 1435 1435 1434 1434 1433 1433 1432 1431 1431 1430 1429 1428 1427 1426 1425 1424
1430 1430 1431 1431 1431 1432 1432 1432 1432 1432 1432 1431 1431 1430 1430 1430 1430 1431 1431 1430 1430 1429 1429 1430 1430 1430 1430 1429 1428 1427 1427 1426 1425 1424 1423 1421 1421 1420
1427 1427 1427 1427 1428 1428 1428 1428 1429 1429 1428 1428 1427 1427 1427 1427 1427 1427 1427 1427 1426 1426 1425 1426 1426 1425 1425 1424 1425 1423 1423 1422 1421 1421 1419 1418 1416 1415
1424 1424 1424 1424 1424 1425 1425 1425 1425 1425 1425 1424 1424 1424 1424 1423 1423 1423 1423 1423 1423 1422 1422 1422 1422 1421 1421 1419 1420 1420 1419 1418 1417 1417 1416 1414 1412 1411
1420 1420 1421 1421 1422 1422 1422 1422 1422 1422 1421 1421 1421 1420 1420 1420 1419 1419 1419 1419 1419 1418 1418 1418 1418 1418 1418 1417 1415 1415 1416 1415 1414 1412 1411 1410 1408 1407
1417 1417 1418 1418 1418 1418 1419 1419 1418 1418 1418 1417 1417 1417 1416 1416 1416 1416 1415 1415 1415 1414 1414 1414 1414 1415 1414 1413 1412 1410 1411 1411 1410 1409 1407 1406 1403 1402
1413 1414 1414 1415 1415 1415 1415 1415 1415 1414 1414 1414 1413 1413 1413 1412 1412 1412 1411 1411 1411 1411 1410 1411 1411 1411 1410 1409 1407 1406 1406 1406 1406 1405 1404 1403 1401 1398
1410 1411 1411 1411 1411 1411 1411 1411 1411 1411 1410 1410 1409 1409 1409 1408 1408 1408 1408 1407 1407 1407 1407 1407 1407 1406 1406 1405 1404 1403 1402 1401 1400 1400 1399 1399 1398 1396